Regional Weather Roundup
Issued by NWS

Home | Current Version | Previous Version | Graphics & Text | Print | Product List | Glossary On
Versions: 1 2 3 4 5 6 7 8 9 10 11 12 13 14 15 16 17 18 19 20 21 22 23 24 25 26 27 28 29 30 31 32 33 34 35 36 37 38 39 40 41 42 43 44 45 46 47 48 49 50
905
ASUS43 KMPX 270410
RWRMN
WEATHER ROUNDUP FOR MINNESOTA
NATIONAL WEATHER SERVICE TWIN CITIES/CHANHASSEN MN
1100 PM CDT SUN MAR 26 2017


NOTE: "FAIR" INDICATES FEW OR NO CLOUDS BELOW 12,000 FEET WITH NO
SIGNIFICANT WEATHER AND/OR OBSTRUCTIONS TO VISIBILITY. N/A MEANS
CURRENT SKY AND/OR WEATHER CONDITIONS ARE NOT AVAILABLE.

MNZ060>063-068>070-270500-
   Twin Cities Metro

CITY           SKY/WX    TMP DP  RH WIND       PRES   REMARKS
TWIN CITIES    CLOUDY    40  35  83 N5        29.96R
ST PAUL        CLOUDY    39  37  92 NW5       29.96R
CRYSTAL        CLOUDY    39  33  79 N3        29.95R
BLAINE         CLOUDY    39  37  93 N3        29.95R
LAKEVILLE      CLOUDY    37  37 100 NW3       29.95R
EDEN PRAIRIE   CLOUDY    40  36  86 NW5       29.95R
SOUTH ST PAUL  CLOUDY    39  37  93 N5        29.95R
LAKE ELMO      CLOUDY    37  37 100 CALM      29.96R
$$
MNZ001>005-007-008-013>017-022>024-027-028-270500-
   Northwest Minnesota

CITY           SKY/WX    TMP DP  RH WIND       PRES   REMARKS
BEMIDJI        PTCLDY    34  31  87 CALM      29.93S
HALLOCK        FOG       30  30 100 CALM      29.95S VSB<1/4
ROSEAU         CLEAR     34  28  80 CALM      29.94S HAZE
WARROAD        CLEAR     32  28  86 CALM      29.94S FOG
THIEF RVR FALL FOG      N/A N/A N/A N3        29.96S VSB 3/4
CROOKSTON      FOG       36  36 100 NE3       29.96S VSB 3/4
FOSSTON        PTCLDY    34  34 100 CALM      29.95R FOG
DETROIT LAKES  CLOUDY    37  36  93 NW3       29.95R
MOORHEAD       CLOUDY    37  36  93 CALM      29.95S
PARK RAPIDS    CLOUDY    40  30  67 SE3       29.92S
MAHNOMEN       FAIR      36  34  95 CALM      29.94R
$$
MNZ006-009>011-018-025>026-270500-
   North Central Minnesota

CITY           SKY/WX    TMP DP  RH WIND       PRES   REMARKS
BAUDETTE       CLEAR     31  29  92 CALM      29.93S
FLAG ISLAND    CLEAR     32  30  93 CALM      29.93S
INTL FALLS     CLOUDY    36  30  79 CALM      29.92F
WASKISH        CLOUDY    36  32  87 CALM      29.94S
BIG FORK       CLOUDY    34  28  80 CALM      29.92S
LONGVILLE      CLOUDY    34  30  86 CALM      29.93R
GRAND RAPIDS   CLOUDY    35  32  88 CALM      29.93S
CRANE LAKE     MOCLDY    28  27  93 CALM      29.94S
ORR            CLOUDY    34  28  80 CALM      29.89F
COOK           CLOUDY    34  28  80 CALM      29.92S
WALKER         MOCLDY    34  30  84 SW3       29.92S
$$
MNZ012-019>021-037-270500-
   Northeast Minnesota

CITY           SKY/WX    TMP DP  RH WIND       PRES   REMARKS
DULUTH         CLOUDY    32  31  96 CALM      29.91F FOG
ELY            PTCLDY    28  28 100 CALM      29.91F
HIBBING        CLOUDY    30  30 100 CALM      29.91S
EVELETH        CLOUDY    30  28  92 CALM      29.92F
DULUTH HARBOR  CLOUDY    34  32  93 CALM      29.96F
TWO HARBORS    CLOUDY    36  30  80 CALM      29.92S HAZE
SILVER BAY     FOG       34  34 100 CALM      29.92S VSB 1/2
GRAND MARAIS     N/A     34  33  96 CALM      29.94F
G MARAIS ARPRT FOG       30  27  86 CALM      29.90F VSB 1/4
$$
MNZ029>031-032-039>041-046>048-054>057-064-270500-
   West Central Minnesota

CITY           SKY/WX    TMP DP  RH WIND       PRES   REMARKS
FERGUS FALLS   CLOUDY    39  36  87 CALM      29.98R
WHEATON        PTCLDY    37  36  93 SE3       29.97S
MORRIS         CLOUDY    39  36  87 CALM      29.94S
ALEXANDRIA     CLOUDY    40  34  79 N3        29.94R
ELBOW LAKE     FAIR      37  36  94 NW3       29.95S
WADENA         CLOUDY    37  30  75 CALM      29.93S
GLENWOOD       CLOUDY    43  36  75 N3        29.94S HAZE
APPLETON       MOCLDY    37  36  93 CALM      29.95S
BENSON         CLOUDY    39  34  81 CALM      29.96S
ORTONVILLE     PTCLDY    37  34  87 CALM      29.96R
MADISON        PTCLDY    39  39 100 CALM      29.96S
WILLMAR        MOCLDY    39  37  93 SE3       29.96S
$$
MNZ033>034-036-042>043-049>051-058-059-270500-
   Central Minnesota

CITY           SKY/WX    TMP DP  RH WIND       PRES   REMARKS
ST CLOUD       CLOUDY    37  37 100 CALM      29.95R
SAUK CENTRE    CLOUDY    37  35  90 CALM      29.94S
PAYNESVILLE      N/A     38  36  91 SE3       29.95S
AITKIN         CLOUDY    28  27  93 CALM      29.92R
PINE RIVER     CLOUDY    36  30  80 CALM      29.97R
BRAINERD       CLOUDY    34  31  88 S3        29.94R
STAPLES        CLOUDY    36  32  87 CALM      29.94R
LONG PRAIRIE   CLOUDY    34  32  93 CALM      29.94S
LITTLE FALLS   CLOUDY    32  30  93 CALM      29.95R
LITCHFIELD     CLOUDY    39  37  93 CALM      29.96S
BUFFALO        CLOUDY    37  36  93 CALM      29.97S
MAPLE LAKE     CLOUDY    38  37  99 CALM      29.97S
HUTCHINSON     CLOUDY    39  38  94 NE5       29.96F
$$
MNZ037-044-045-052-053-270500-
   East Central Minnesota

CITY           SKY/WX    TMP DP  RH WIND       PRES   REMARKS
PRINCETON      CLOUDY    37  36  93 CALM      29.95S
MORA           CLOUDY    36  34  93 CALM      29.96S FOG
CAMBRIDGE      CLOUDY    37  36  93 CALM      29.93S
RUSH CITY      CLOUDY    35  34  95 CALM      29.95R
MOOSE LAKE     CLOUDY    34  32  93 CALM      29.92S
CLOQUET        FOG       32  30  93 CALM      29.92S VSB 1
MCGREGOR       CLEAR     32  30  93 CALM      29.93S
$$
MNZ071>073-080-081-089-090-097-098-270500-
   Southwest Minnesota

CITY           SKY/WX    TMP DP  RH WIND       PRES   REMARKS
MONTEVIDEO     CLOUDY    39  36  87 N3        29.97S
GRANITE FALLS  CLOUDY    40  38  92 SW5       29.97S
CANBY          MOCLDY    40  37  91 CALM      29.97S
MARSHALL       MOCLDY    36  34  92 W8        29.97R
REDWOOD FALLS  CLOUDY    40  36  86 S6        29.96R
OLIVIA         CLOUDY    39  36  87 CALM      29.95S
PIPESTONE      CLOUDY    41  36  81 CALM      29.95F
WINDOM         CLOUDY    39  37  93 SW3       29.96S
WORTHINGTON    CLOUDY    39  37  92 SW6       29.97F
JACKSON        CLOUDY    39  37  93 CALM      29.97S
TRACY          CLOUDY    40  39  94 W5        29.96S
SLAYTON        CLOUDY    38  37  95 W3        29.97S
$$
MNZ065>067-074>077-082>085-091>093-270500-
   South Central Minnesota

CITY           SKY/WX    TMP DP  RH WIND       PRES   REMARKS
MANKATO        CLOUDY    39  37  92 N7        29.96S
NEW ULM        CLOUDY    39  36  87 CALM      29.96S
ST JAMES       CLOUDY    39  37  93 CALM      29.98R
FAIRMONT       CLOUDY    40  37  89 CALM      29.97R
GLENCOE        CLOUDY    39  39 100 N5        29.94F
FARIBAULT      CLOUDY    39  39 100 NW3       29.95S FOG
OWATONNA       DRIZZLE   39  37  93 NW3       29.94F
WASECA         CLOUDY    39  37  93 NW5       29.95S FOG
ALBERT LEA     CLOUDY    39  39 100 CALM      29.94S FOG
$$
MNZ078>079-086>088-094>096-270500-
   Southeast Minnesota

CITY           SKY/WX    TMP DP  RH WIND       PRES   REMARKS
ROCHESTER      CLOUDY    39  38  96 NW8       29.93S FOG
RED WING       CLOUDY    41  39  93 CALM      29.94R FOG
STANTON        CLOUDY    40  38  93 CALM      29.94S FOG
DODGE CENTER   CLOUDY    39  37  93 NW3       29.93S FOG
WINONA         CLOUDY    41  37  87 CALM      29.94S
AUSTIN         CLOUDY    39  37  93 CALM      29.93S FOG
PRESTON          N/A    N/A N/A N/A CALM      29.92R
$$
ABBREVIATIONS USED IN REMARKS
   TC - TEMPERATURES IN CELSIUS
  WCI - WIND CHILL INDEX
   HX - HEAT INDEX
  VSB - VISIBILITY
$$




USA.gov is the U.S. government's official web portal to all federal, state and local government web resources and services.